EHI
0 0 0 0 0 0 0 0 0 0 0 0 0 0 0 0 0 1 1 6 16 22 19 15 14 10 6 5 4 2 2 3 3 3 3 2 1 0 0 0 0 0 0 0 0 0 0 0 0
0 0 0 0 0 0 0 0 0 0 0 0 0 0 0 0 0 1 2 7 16 19 15 12 14 11 6 5 4 2 2 2 2 2 2 2 1 0 0 0 0 0 0 0 0 0 0 0 0
0 0 0 0 0 0 0 0 0 0 0 0 0 0 0 0 0 1 2 7 12 12 8 11 15 11 5 5 4 3 1 1 1 1 1 1 1 0 0 0 0 0 0 0 0 0 0 0 0
0 0 0 0 0 0 0 0 0 0 0 0 0 1 2 2 2 2 3 6 7 6 5 11 15 11 5 4 5 3 2 1 0 0 0 0 0 0 0 0 0 0 0 0 0 0 0 0 0
0 0 0 0 0 0 0 0 0 0 0 0 0 1 3 4 5 5 4 5 6 5 5 10 15 11 5 4 5 4 3 2 1 0 0 0 0 0 1 0 0 0 0 0 0 0 0 0 0
0 0 0 0 0 0 0 0 0 0 0 0 0 1 3 6 6 6 5 6 7 8 7 9 11 9 5 4 5 5 3 2 1 0 0 0 0 0 1 1 0 0 0 0 0 0 0 0 0
0 0 0 0 0 0 0 0 0 0 0 0 0 1 2 4 5 6 7 8 10 10 10 8 6 5 4 3 4 3 2 1 0 0 1 0 0 0 1 1 0 0 0 0 0 0 0 0 0
0 0 0 0 0 0 0 0 0 0 0 0 0 0 1 2 3 5 7 10 12 11 10 7 3 2 2 1 1 1 1 1 0 0 0 0 0 0 1 1 0 0 0 0 0 0 0 0 0
0 0 0 0 0 0 0 0 0 0 0 0 0 0 0 0 1 3 6 9 9 8 7 6 3 1 2 2 1 1 1 0 0 0 0 0 0 0 0 0 0 0 0 0 0 0 0 0 0
0 0 0 0 0 0 0 0 0 0 0 0 0 0 0 0 0 2 5 6 4 3 3 3 2 1 2 3 2 1 0 0 0 0 0 0 0 0 0 0 0 0 0 0 0 0 0 0 0
0 0 0 0 0 0 0 0 0 0 0 0 0 0 0 0 0 1 3 3 2 1 1 1 1 2 3 4 4 1 0 0 0 0 0 0 0 0 0 0 0 0 0 0 0 0 0 0 0
0 0 0 0 0 0 0 0 0 0 0 0 0 0 0 0 0 0 1 2 2 2 1 1 2 3 3 4 4 1 0 0 0 0 0 0 0 0 0 0 0 0 0 0 0 0 0 0 0
0 0 0 0 0 0 0 0 0 0 0 0 0 0 0 0 0 0 0 1 2 2 2 3 3 3 3 3 2 1 0 0 1 1 1 0 0 0 0 0 0 0 0 0 0 0 0 0 0
0 0 0 0 0 0 0 0 0 0 0 0 0 0 0 0 0 0 0 0 1 1 3 3 3 2 1 1 1 0 0 0 1 2 1 0 0 0 0 0 0 0 0 0 0 0 0 0 0
0 0 0 0 0 0 0 0 0 0 0 0 0 0 0 0 0 0 0 0 0 1 2 2 1 1 0 0 0 0 0 0 2 3 3 1 0 0 0 0 0 0 0 0 0 0 0 0 0
0 0 0 0 0 0 0 0 0 0 0 0 0 0 0 0 0 0 0 0 0 0 1 1 0 0 0 0 0 0 0 1 3 5 4 1 0 0 0 0 0 0 0 0 0 0 0 0 0
0 0 0 0 0 0 0 0 0 0 0 0 0 0 0 0 0 0 0 0 0 0 0 0 0 0 0 0 0 0 0 1 3 4 3 1 0 0 0 0 0 0 0 0 0 0 0 0 0
0 0 0 0 0 0 0 0 0 0 0 0 0 0 0 0 0 0 1 1 1 0 0 0 0 0 0 0 0 0 0 0 1 1 1 0 0 0 0 0 0 0 0 0 0 0 0 0 0
0 0 0 0 0 0 0 0 0 0 0 0 0 0 0 0 0 0 1 1 1 0 0 0 0 0 0 0 0 0 0 0 0 0 0 0 0 0 0 0 0 0 0 0 0 0 0 0 0
0 0 0 0 0 0 0 0 0 0 0 0 0 0 0 0 0 1 2 1 0 0 0 0 0 0 0 0 0 0 0 0 0 1 0 0 0 0 0 0 0 0 0 0 0 0 0 0 0
0 0 0 0 0 0 0 0 0 0 0 0 0 0 0 0 1 2 2 1 0 0 0 0 0 0 0 0 0 0 0 0 0 0 0 0 0 0 0 0 0 0 0 0 0 0 0 0 0
0 0 0 0 0 0 0 0 0 0 0 0 0 0 0 0 1 2 2 0 0 0 0 0 0 0 0 0 0 0 0 0 0 0 0 0 0 0 0 0 0 0 0 0 0 0 0 0 0
0 0 0 0 0 0 0 0 0 0 0 0 0 0 0 0 1 2 1 0 0 0 0 0 0 0 0 0 0 0 0 0 0 0 0 0 0 0 0 0 0 0 0 0 0 0 0 0 0
0 0 0 0 0 0 0 0 0 0 0 0 0 0 0 0 0 1 1 0 0 0 0 0 0 0 0 0 0 0 0 0 0 0 0 0 0 0 0 0 0 0 0 0 0 0 0 0 0
0 0 0 0 0 0 0 0 0 0 0 0 0 0 0 0 0 0 0 0 0 0 0 0 0 0 0 0 0 0 0 0 0 0 0 0 0 0 0 0 0 0 0 0 0 0 0 0 0
0 0 0 0 0 0 0 0 0 0 0 0 0 0 0 0 0 0 0 0 0 0 0 0 0 0 0 0 0 0 0 0 0 0 0 0 0 0 0 0 0 0 0 0 0 0 0 0 0
0 0 0 0 0 0 0 0 0 0 0 0 0 0 0 0 0 0 0 0 0 0 0 0 0 0 0 0 0 0 0 0 0 0 0 0 0 0 0 0 0 0 0 0 0 0 0 0 0
0 0 0 0 0 0 0 0 0 0 0 0 0 0 0 0 0 0 0 0 0 0 0 0 0 0 0 0 0 0 0 0 0 0 0 0 0 0 0 0 0 0 0 0 0 0 0 0 0
0 0 0 0 0 0 0 0 0 0 0 0 0 0 0 0 0 0 0 0 0 0 0 0 0 0 0 0 0 0 0 0 0 0 0 0 0 0 0 0 0 0 0 0 0 0 0 0 0
0 0 0 0 0 0 0 0 0 0 0 0 0 0 0 0 0 1 1 1 0 0 0 0 0 0 0 0 0 0 0 0 0 0 0 0 0 0 0 0 0 0 0 0 0 0 0 0 0
Wind_Speed
13 10 5 2 2 4 6 6 5 3 2 4 5 4 4 4 4 5 4 5 6 8 9 9 8 7 7 6 6 5 5 6 6 7 7 7 7 6 6 6 6 6 6 6 7 7 7 7 7
10 7 3 2 4 5 6 7 7 3 1 3 4 3 3 3 6 7 4 5 5 8 8 7 8 7 7 6 6 6 5 5 6 6 6 7 7 7 7 6 6 6 6 6 6 6 6 6 6
9 6 3 3 4 5 3 1 1 2 3 2 1 2 2 2 5 4 4 4 5 7 7 8 8 6 6 6 6 6 5 6 6 6 6 7 7 7 7 6 6 6 6 6 6 6 6 6 6
4 2 3 3 7 6 4 2 3 3 2 1 1 0 1 4 4 4 5 4 5 6 6 8 8 6 6 6 6 6 6 6 6 6 6 6 7 7 7 7 6 6 6 6 6 6 6 5 5
2 2 3 5 7 6 4 3 2 2 2 2 0 2 1 5 7 6 4 3 4 5 5 7 8 6 5 6 6 6 6 6 6 6 6 6 6 6 7 7 7 6 6 5 5 5 5 5 5
2 2 3 5 6 5 2 2 2 2 3 3 3 3 1 4 5 4 3 2 3 5 5 6 7 6 5 6 6 6 6 7 6 6 7 6 6 6 6 6 6 6 6 5 5 5 5 5 4
2 2 4 5 5 4 2 1 1 3 4 3 3 3 1 3 4 3 2 2 2 4 5 5 5 5 5 5 6 6 7 7 6 6 6 6 6 6 6 6 6 6 6 5 5 5 4 4 3
2 2 4 4 5 4 2 2 2 3 4 3 3 3 0 2 4 3 2 2 1 2 4 5 4 4 4 4 5 6 6 6 6 6 6 6 6 6 5 5 5 5 5 5 5 4 4 3 2
2 2 4 4 4 3 2 2 2 2 4 5 4 4 1 2 2 1 1 1 0 0 2 4 4 4 3 3 5 5 6 6 6 6 7 6 4 4 3 4 4 5 5 4 4 4 4 3 1
2 3 4 3 3 4 4 4 4 3 5 6 5 4 2 1 1 2 2 2 2 2 2 3 4 4 3 3 4 4 4 4 4 4 4 3 2 3 4 5 4 4 4 4 4 4 4 3 1
3 4 4 4 4 4 5 6 5 6 8 8 6 4 2 2 2 3 3 3 3 2 2 3 3 3 3 2 2 2 2 3 3 4 4 2 3 3 4 2 2 2 3 2 2 2 2 2 1
4 6 6 5 4 4 6 6 7 9 9 5 5 3 3 4 4 4 4 4 3 3 2 2 3 3 3 3 2 2 2 2 2 3 4 3 2 2 3 2 2 2 1 2 2 1 1 2 2
7 6 6 6 5 6 7 9 9 11 9 6 6 6 7 6 5 5 4 4 4 3 3 2 2 3 3 3 2 2 2 2 2 2 2 3 2 2 2 2 2 1 1 1 1 1 1 1 1
4 5 7 7 6 6 8 10 9 11 7 8 8 7 7 6 6 5 4 4 4 4 4 3 3 4 4 3 2 2 2 2 2 2 2 2 2 2 2 2 2 1 1 1 1 2 2 1 1
6 7 8 8 8 5 5 9 10 10 7 9 9 8 7 6 6 6 5 4 4 4 4 4 4 4 4 4 3 2 2 2 2 2 2 2 2 3 2 2 1 1 1 0 0 2 2 2 2
6 7 6 5 6 4 4 10 7 5 6 8 7 6 6 6 6 5 4 4 4 4 4 4 3 3 4 3 3 2 2 2 2 2 3 3 3 3 2 2 1 1 1 1 1 1 2 1 1
6 6 7 4 5 4 6 9 7 5 6 8 7 6 6 5 5 4 4 4 4 4 4 4 4 3 3 3 3 3 2 2 2 2 3 3 3 3 2 2 1 2 1 1 1 1 2 2 1
4 6 7 6 3 4 8 11 9 6 7 8 7 7 6 6 5 4 5 4 4 4 4 5 5 4 3 3 2 2 2 2 2 3 3 4 3 3 2 2 2 2 1 1 1 1 2 2 1
8 9 11 8 4 6 9 12 11 7 7 7 6 6 6 6 5 4 4 4 4 4 5 5 5 4 3 3 3 2 2 2 2 2 4 4 3 3 3 2 2 2 2 1 2 1 2 1 2
10 11 11 8 4 6 9 13 11 8 8 7 7 7 6 6 5 5 5 5 4 5 5 5 5 5 4 3 3 2 2 2 2 2 3 4 4 3 3 3 2 2 2 2 2 2 1 1 1
11 9 8 8 8 7 8 10 7 5 6 5 5 6 6 7 7 6 6 5 5 5 5 5 5 5 4 3 3 3 2 2 1 2 2 3 3 3 3 3 2 2 2 2 2 2 2 1 1
9 5 6 7 6 4 3 7 7 4 4 4 5 6 6 6 6 6 6 6 6 5 5 5 5 5 5 4 4 5 4 3 3 2 2 2 3 3 3 3 3 2 1 2 2 2 1 2 1
6 3 6 7 6 6 5 6 8 3 5 5 5 5 5 6 6 7 6 6 5 6 6 5 6 5 5 5 4 5 4 3 3 3 3 2 2 3 3 3 3 2 1 2 2 1 1 1 2
4 4 8 6 4 6 7 6 7 3 5 3 4 4 5 5 6 6 6 5 5 5 5 6 6 6 5 5 5 5 5 5 5 4 4 3 2 2 2 3 3 2 2 2 2 2 2 1 1
5 3 2 2 4 7 4 5 7 3 2 3 3 4 5 5 5 6 6 6 6 7 7 6 7 6 6 5 5 5 5 6 6 5 5 4 3 2 3 2 2 2 2 2 2 2 1 1 1
7 5 4 4 4 3 2 6 5 2 1 0 1 2 4 5 5 6 6 6 6 7 7 7 7 6 6 6 5 5 5 4 4 5 5 5 4 3 4 3 2 2 2 2 2 1 1 1 1
5 6 4 3 5 5 6 5 3 1 1 0 0 1 2 3 4 5 5 6 6 6 7 7 7 6 7 7 6 5 5 5 5 5 4 4 4 3 4 4 3 2 2 2 2 1 1 1 1
5 2 3 4 4 6 6 5 4 2 2 1 1 0 1 2 3 4 5 5 5 6 5 6 6 6 6 6 6 4 5 5 5 5 5 4 4 4 5 4 4 3 3 3 2 2 2 2 2
6 5 5 4 4 3 4 4 0 2 2 1 0 1 0 1 1 2 4 4 4 4 5 5 5 5 5 5 5 5 5 5 5 4 5 5 4 5 5 5 5 4 4 3 3 2 2 2 2
7 7 7 4 5 5 4 5 1 3 3 2 2 1 1 1 1 1 3 4 4 4 4 4 4 5 5 5 5 5 5 5 5 5 4 5 5 4 4 5 4 4 4 4 4 3 3 3 3
Wind_Direction
303 280 265 262 243 229 238 241 257 263 293 9 13 3 355 353 24 97 120 84 97 120 130 140 135 134 136 133 128 126 124 127 125 122 121 123 122 121 119 112 107 104 102 98 95 90 88 84 80
298 296 271 242 238 229 233 223 236 260 32 30 20 1 338 28 65 94 87 83 100 116 128 137 136 138 142 138 135 135 131 129 126 126 126 126 122 117 114 110 104 101 97 97 96 92 90 90 85
280 277 258 235 237 237 248 353 34 58 43 46 17 356 323 36 66 81 82 87 99 113 129 135 133 142 143 144 141 141 135 130 129 128 129 125 118 116 113 109 105 101 96 94 97 96 95 93 90
283 249 249 250 249 256 274 345 21 13 16 22 59 317 65 54 66 80 85 85 99 112 125 135 136 141 144 146 145 145 143 137 136 132 127 126 122 118 113 108 103 100 96 92 94 98 95 96 95
253 257 234 236 247 260 286 333 6 328 319 326 305 268 56 79 82 83 85 90 103 110 119 142 144 143 148 152 150 150 150 141 138 133 127 126 126 121 115 111 107 102 98 96 94 97 97 95 95
258 245 240 242 245 244 254 301 298 290 291 304 309 270 177 99 88 85 78 84 106 117 119 142 149 145 149 157 158 154 147 142 136 132 128 121 120 122 121 118 115 112 109 106 101 94 102 101 97
281 262 252 269 277 276 281 357 294 290 278 293 312 291 157 92 84 72 60 61 84 120 126 140 155 152 147 150 157 154 149 141 137 132 127 119 114 115 118 116 114 113 115 112 103 98 94 102 100
307 290 255 257 263 276 341 1 343 305 287 313 311 277 194 94 81 70 50 35 33 116 131 140 158 155 153 157 154 150 147 138 136 131 124 115 111 109 112 113 112 111 109 110 107 105 103 97 104
277 252 248 259 281 314 358 325 312 322 284 276 272 276 320 87 73 55 43 357 314 186 141 146 154 158 155 160 154 143 140 137 134 130 132 131 135 125 112 108 115 120 118 117 124 126 129 126 141
230 241 251 299 321 324 323 306 303 274 263 259 250 240 204 195 196 207 228 230 226 230 188 156 157 157 156 161 152 158 150 149 154 147 154 163 142 125 110 106 113 126 126 131 150 155 161 168 185
234 247 276 296 315 317 298 284 271 259 256 251 247 239 213 237 237 221 219 226 225 217 213 166 161 155 151 146 152 158 156 162 162 157 169 150 121 119 119 123 123 140 156 168 172 190 210 169 156
241 257 268 273 292 284 278 275 267 253 254 264 271 263 253 250 244 235 223 221 219 211 216 204 160 155 150 141 147 156 157 165 163 164 172 151 132 137 146 148 160 168 181 172 185 198 176 149 152
242 254 261 264 266 260 263 262 264 261 260 257 249 243 238 241 244 235 226 218 205 202 205 216 175 158 150 144 158 154 152 159 154 156 170 138 134 139 139 138 139 152 153 183 183 158 130 109 92
273 277 273 265 259 256 256 261 253 252 242 239 234 233 229 225 232 231 225 222 210 201 200 198 186 170 154 153 159 153 143 145 139 136 139 132 130 132 133 125 127 127 139 195 184 138 127 113 87
272 270 266 245 237 236 256 265 238 242 237 240 234 229 224 222 223 223 218 214 212 204 191 188 181 166 159 155 156 140 147 143 141 140 133 115 111 120 123 126 125 129 127 155 87 100 99 98 88
250 253 254 225 211 203 213 263 248 230 227 240 236 226 221 223 218 217 213 212 202 193 179 179 177 160 159 152 140 135 149 136 138 137 130 122 116 118 119 121 124 114 98 90 98 108 103 98 95
226 247 255 247 207 210 223 263 270 248 250 249 237 223 218 220 213 206 202 201 188 184 174 163 162 158 151 140 133 135 136 140 140 137 134 132 127 125 117 122 126 111 96 94 119 102 121 119 95
253 261 268 265 219 246 256 265 272 257 251 251 235 224 213 212 212 201 192 192 184 175 168 162 161 159 142 134 131 120 121 142 145 143 141 137 137 132 124 120 116 109 103 95 102 115 106 118 123
272 275 275 277 282 275 268 272 273 263 252 248 234 225 209 208 200 192 184 181 175 167 163 163 157 158 148 149 157 154 153 144 144 149 146 141 137 135 136 132 125 119 122 131 116 105 113 112 111
258 263 271 281 274 280 276 276 273 254 243 235 225 217 206 201 193 189 183 172 169 168 164 162 158 162 161 163 165 159 149 136 142 150 149 145 142 140 140 137 137 133 127 117 106 103 114 146 142
254 253 268 284 300 270 281 284 261 243 238 232 221 208 200 197 190 186 182 174 169 169 165 167 162 159 161 156 147 133 112 106 131 150 147 147 141 132 126 134 137 150 146 148 139 133 125 152 212
260 254 266 279 293 283 279 291 281 251 241 237 224 209 201 196 189 181 179 180 174 168 160 163 157 156 162 164 164 156 158 154 168 165 150 152 145 139 135 134 134 142 139 143 154 134 145 152 183
250 281 268 268 270 277 249 247 275 236 241 236 222 205 192 187 181 178 180 178 168 157 156 162 158 160 166 173 177 170 162 150 142 141 145 149 152 147 146 140 137 143 145 147 151 147 162 173 183
256 262 261 249 246 258 230 218 269 226 240 239 228 206 185 182 180 175 169 161 161 155 158 163 161 165 170 175 183 180 167 154 148 153 159 155 154 149 152 146 144 149 153 161 170 175 183 199 200
223 224 287 261 222 242 209 216 249 235 226 223 228 207 188 183 183 173 165 163 161 161 166 166 165 167 171 176 185 187 174 165 165 166 168 162 166 170 177 164 159 161 170 168 164 168 189 193 188
213 210 205 234 251 278 246 232 240 187 120 181 217 178 172 182 184 177 170 168 168 168 169 167 170 173 174 179 189 184 174 170 174 174 171 173 178 180 173 165 164 167 169 169 164 166 192 185 191
209 216 230 267 286 277 252 245 248 140 74 26 92 136 170 174 177 175 169 171 170 172 176 176 178 175 179 182 185 183 179 178 177 174 171 173 171 169 164 165 167 175 172 169 162 177 194 184 204
247 226 175 204 242 259 259 242 245 223 228 189 159 199 182 161 172 176 170 167 170 170 169 172 176 177 178 176 182 184 181 181 176 172 175 173 166 163 162 167 169 179 176 176 173 176 186 184 203
195 214 211 219 225 236 271 263 148 126 129 157 151 83 87 134 170 168 161 157 156 155 156 163 171 170 169 170 173 176 177 177 175 171 175 170 157 160 166 170 173 178 183 181 180 189 187 195 200
208 208 197 203 229 221 250 269 22 92 92 78 45 26 75 126 141 152 151 152 155 154 156 162 170 170 169 168 167 168 168 169 171 171 173 161 158 166 170 171 176 178 184 183 182 195 201 203 204